timestamp,wind_dir_avg,wind_spd_avg,wind_spd_max_dir,wind_spd_gust,battery_voltage,lat,long
2024-01-03 00:04:00+00:00,240.0,10.12,243.0,11.14,12.33,47.59359,-54.27349
2024-01-03 00:14:00+00:00,227.0,8.75,233.0,11.43,12.33,47.59359,-54.27349
2024-01-03 00:24:00+00:00,225.0,8.22,230.0,9.95,12.33,47.59359,-54.27349
2024-01-03 00:34:00+00:00,238.0,8.73,247.0,10.78,12.33,47.59359,-54.27349
2024-01-03 00:44:00+00:00,238.0,8.81,238.0,10.55,12.33,47.59359,-54.27349
2024-01-03 00:54:00+00:00,240.0,10.26,239.0,11.82,12.33,47.59359,-54.27349
2024-01-03 01:04:00+00:00,243.0,10.7,244.0,11.91,12.33,47.59359,-54.27349
2024-01-03 01:14:00+00:00,256.0,11.75,259.0,12.92,12.25,47.59359,-54.27349
2024-01-03 01:24:00+00:00,248.0,11.84,257.0,14.08,12.25,47.59359,-54.27349
2024-01-03 01:34:00+00:00,245.0,10.71,239.0,12.47,12.25,47.59359,-54.27349
2024-01-03 01:44:00+00:00,246.0,10.34,250.0,12.48,12.25,47.59359,-54.27349
2024-01-03 01:54:00+00:00,253.0,8.91,254.0,10.54,12.25,47.59359,-54.27349
2024-01-03 02:04:00+00:00,244.0,7.21,241.0,8.61,12.25,47.59359,-54.27349
2024-01-03 02:14:00+00:00,249.0,10.19,250.0,11.03,12.25,47.59359,-54.27349
2024-01-03 02:24:00+00:00,234.0,9.2,234.0,10.92,12.25,47.59359,-54.27349
2024-01-03 02:34:00+00:00,227.0,10.05,233.0,11.99,12.25,47.59359,-54.27349
2024-01-03 02:44:00+00:00,239.0,9.53,237.0,10.85,12.25,47.59359,-54.27349
2024-01-03 02:54:00+00:00,244.0,10.12,247.0,11.59,12.25,47.59359,-54.27349
2024-01-03 03:04:00+00:00,236.0,8.98,248.0,10.27,12.25,47.59359,-54.27349
2024-01-03 03:14:01+00:00,222.0,8.16,235.0,10.07,12.25,47.59359,-54.27349
2024-01-03 03:24:01+00:00,232.0,8.87,238.0,10.37,12.25,47.59359,-54.27349
2024-01-03 03:34:01+00:00,231.0,8.97,238.0,10.43,12.25,47.59359,-54.27349
2024-01-03 03:44:01+00:00,238.0,9.34,242.0,10.85,12.25,47.59359,-54.27349
2024-01-03 03:54:01+00:00,238.0,8.86,241.0,10.95,12.25,47.59359,-54.27349
2024-01-03 04:04:01+00:00,232.0,9.42,231.0,11.36,12.25,47.59359,-54.27349
2024-01-03 04:14:00+00:00,240.0,9.28,238.0,10.44,12.17,47.59359,-54.27349
2024-01-03 04:24:00+00:00,248.0,11.31,252.0,12.81,12.17,47.59359,-54.27349
2024-01-03 04:34:00+00:00,254.0,11.17,256.0,12.63,12.17,47.59359,-54.27349
2024-01-03 04:44:00+00:00,242.0,9.83,250.0,12.57,12.17,47.59359,-54.27349
2024-01-03 04:54:00+00:00,250.0,10.14,253.0,11.83,12.17,47.59359,-54.27349
2024-01-03 05:04:00+00:00,249.0,10.64,252.0,12.73,12.17,47.59359,-54.27349
2024-01-03 05:14:00+00:00,258.0,10.48,256.0,11.98,12.17,47.59359,-54.27349
2024-01-03 05:24:00+00:00,257.0,8.92,262.0,11.03,12.17,47.59359,-54.27349
2024-01-03 05:34:00+00:00,258.0,8.6,260.0,9.79,12.17,47.59359,-54.27349
2024-01-03 05:44:00+00:00,249.0,8.66,250.0,10.31,12.17,47.59359,-54.27349
2024-01-03 05:54:00+00:00,257.0,8.15,256.0,10.33,12.17,47.59359,-54.27349
2024-01-03 06:04:00+00:00,258.0,9.12,259.0,10.52,12.17,47.59359,-54.27349
2024-01-03 06:14:00+00:00,250.0,8.89,253.0,10.34,12.09,47.59359,-54.27349
2024-01-03 06:24:00+00:00,255.0,9.06,257.0,10.31,12.09,47.59359,-54.27349
2024-01-03 06:34:00+00:00,253.0,9.47,252.0,10.61,12.09,47.59359,-54.27349
2024-01-03 06:44:00+00:00,245.0,7.81,261.0,9.98,12.09,47.59359,-54.27349
2024-01-03 06:54:00+00:00,252.0,9.55,255.0,11.06,12.09,47.59359,-54.27349
2024-01-03 07:04:00+00:00,253.0,8.02,250.0,10.69,12.09,47.59359,-54.27349
2024-01-03 07:14:00+00:00,256.0,9.52,253.0,11.36,12.09,47.59359,-54.27349
2024-01-03 07:24:00+00:00,252.0,9.88,244.0,11.71,12.09,47.59359,-54.27349
2024-01-03 07:34:00+00:00,255.0,9.74,250.0,11.74,12.09,47.59359,-54.27349
2024-01-03 07:44:00+00:00,255.0,8.09,252.0,10.54,12.09,47.59359,-54.27349
2024-01-03 07:54:00+00:00,258.0,9.94,260.0,10.92,12.09,47.59359,-54.27349
2024-01-03 08:04:00+00:00,255.0,8.71,258.0,10.09,12.09,47.59359,-54.27349
2024-01-03 08:14:00+00:00,255.0,8.36,258.0,10.35,12.09,47.59359,-54.27349
2024-01-03 08:24:00+00:00,253.0,6.83,252.0,8.42,12.09,47.59359,-54.27349
2024-01-03 08:34:00+00:00,240.0,8.39,250.0,10.2,12.09,47.59359,-54.27349
2024-01-03 08:44:00+00:00,238.0,7.31,237.0,8.94,12.09,47.59359,-54.27349
2024-01-03 08:54:00+00:00,219.0,7.24,218.0,8.08,12.09,47.59359,-54.27349
2024-01-03 09:04:00+00:00,227.0,6.97,232.0,9.02,12.09,47.59359,-54.27349
2024-01-03 09:14:00+00:00,236.0,8.33,241.0,9.38,12.09,47.59359,-54.27349
2024-01-03 09:24:00+00:00,232.0,6.84,234.0,8.36,12.09,47.59359,-54.27349
2024-01-03 09:34:00+00:00,232.0,8.06,236.0,9.68,12.09,47.59359,-54.27349
2024-01-03 09:44:00+00:00,237.0,8.48,245.0,10.11,12.09,47.59359,-54.27349
2024-01-03 09:54:00+00:00,240.0,9.81,237.0,10.68,12.09,47.59359,-54.27349
2024-01-03 10:04:00+00:00,244.0,7.57,253.0,10.17,12.09,47.59359,-54.27349
2024-01-03 10:14:00+00:00,232.0,6.14,237.0,7.93,12.01,47.59359,-54.27349
2024-01-03 10:24:00+00:00,231.0,7.3,246.0,9.99,12.01,47.59359,-54.27349
2024-01-03 10:34:00+00:00,235.0,9.0,238.0,10.99,12.01,47.59359,-54.27349
2024-01-03 10:44:00+00:00,230.0,8.34,238.0,11.05,12.01,47.59359,-54.27349
2024-01-03 10:54:00+00:00,230.0,9.4,241.0,10.9,12.01,47.59359,-54.27349
2024-01-03 11:04:00+00:00,226.0,8.36,239.0,11.27,12.01,47.59359,-54.27349
2024-01-03 11:14:00+00:00,237.0,9.55,239.0,11.23,12.01,47.59359,-54.27349
2024-01-03 11:24:00+00:00,238.0,9.13,236.0,10.86,12.01,47.59359,-54.27349
2024-01-03 11:34:00+00:00,239.0,9.8,242.0,11.63,12.01,47.59359,-54.27349
2024-01-03 11:44:00+00:00,237.0,8.06,238.0,11.01,12.01,47.59359,-54.27349
2024-01-03 11:54:00+00:00,234.0,8.2,243.0,10.18,12.01,47.59359,-54.27349
2024-01-03 12:04:00+00:00,240.0,8.8,241.0,11.04,12.01,47.59359,-54.27349
2024-01-03 12:14:00+00:00,243.0,8.66,244.0,10.34,12.09,47.59359,-54.27349
2024-01-03 12:24:00+00:00,248.0,9.21,254.0,10.73,12.09,47.59359,-54.27349
2024-01-03 12:34:00+00:00,246.0,8.15,252.0,10.75,12.09,47.59359,-54.27349
2024-01-03 12:44:00+00:00,233.0,7.49,239.0,9.9,12.09,47.59359,-54.27349
2024-01-03 12:54:00+00:00,244.0,8.15,254.0,10.29,12.09,47.59359,-54.27349
2024-01-03 13:04:00+00:00,264.0,8.85,264.0,10.77,12.09,47.59359,-54.27349
2024-01-03 13:14:00+00:00,245.0,7.11,255.0,10.74,12.81,47.59359,-54.27349
2024-01-03 13:24:00+00:00,234.0,5.28,231.0,6.1,12.81,47.59359,-54.27349
2024-01-03 13:34:00+00:00,218.0,6.57,215.0,7.32,12.81,47.59359,-54.27349
2024-01-03 13:44:00+00:00,217.0,6.95,228.0,7.95,12.81,47.59359,-54.27349
2024-01-03 13:54:00+00:00,221.0,5.82,216.0,6.87,12.81,47.59359,-54.27349
2024-01-03 14:04:00+00:00,228.0,6.36,244.0,9.75,12.81,47.59359,-54.27349
2024-01-03 14:14:00+00:00,231.0,6.75,235.0,8.3,13.29,47.59359,-54.27349
2024-01-03 14:24:00+00:00,246.0,5.95,254.0,8.78,13.29,47.59359,-54.27349
2024-01-03 14:34:00+00:00,238.0,8.67,241.0,10.15,13.29,47.59359,-54.27349
2024-01-03 14:44:00+00:00,229.0,5.43,224.0,6.38,13.29,47.59359,-54.27349
2024-01-03 14:54:00+00:00,226.0,5.84,238.0,7.95,13.29,47.59359,-54.27349
2024-01-03 15:04:00+00:00,227.0,6.31,243.0,9.18,13.29,47.59359,-54.27349
2024-01-03 15:14:00+00:00,231.0,6.04,235.0,7.7,13.68,47.59359,-54.27349
2024-01-03 15:24:00+00:00,221.0,6.09,229.0,7.58,13.68,47.59359,-54.27349
2024-01-03 15:34:00+00:00,212.0,6.24,213.0,6.93,13.68,47.59359,-54.27349
2024-01-03 15:44:00+00:00,212.0,6.75,211.0,7.53,13.68,47.59359,-54.27349
2024-01-03 15:54:00+00:00,214.0,6.83,212.0,7.69,13.68,47.59359,-54.27349
2024-01-03 16:04:00+00:00,217.0,6.05,213.0,6.72,13.68,47.59359,-54.27349
2024-01-03 16:14:00+00:00,243.0,6.14,251.0,9.67,13.84,47.59359,-54.27349
2024-01-03 16:24:00+00:00,234.0,6.03,236.0,7.95,13.84,47.59359,-54.27349
2024-01-03 16:34:00+00:00,225.0,6.95,236.0,8.48,13.84,47.59359,-54.27349
2024-01-03 16:44:00+00:00,219.0,7.85,232.0,9.32,13.84,47.59359,-54.27349
2024-01-03 16:54:00+00:00,222.0,6.83,229.0,8.14,13.84,47.59359,-54.27349
2024-01-03 17:04:00+00:00,215.0,7.18,217.0,8.27,13.84,47.59359,-54.27349
2024-01-03 17:14:00+00:00,220.0,6.33,217.0,6.84,13.68,47.59359,-54.27349
2024-01-03 17:24:00+00:00,213.0,6.29,213.0,6.85,13.68,47.59359,-54.27349
2024-01-03 17:34:00+00:00,217.0,6.58,216.0,7.07,13.68,47.59359,-54.27349
2024-01-03 17:44:00+00:00,220.0,5.74,221.0,6.18,13.68,47.59359,-54.27349
2024-01-03 17:54:00+00:00,224.0,5.69,218.0,6.18,13.68,47.59359,-54.27349
2024-01-03 18:04:00+00:00,227.0,4.6,225.0,5.82,13.68,47.59359,-54.27349
2024-01-03 18:14:00+00:00,261.0,8.02,264.0,10.53,14.4,47.59359,-54.27349
2024-01-03 18:24:00+00:00,242.0,4.95,242.0,5.32,14.4,47.59359,-54.27349
2024-01-03 18:34:00+00:00,218.0,5.85,218.0,6.73,14.4,47.59359,-54.27349
2024-01-03 18:44:00+00:00,215.0,6.06,215.0,6.6,14.4,47.59359,-54.27349
2024-01-03 18:54:00+00:00,217.0,6.59,216.0,7.25,14.4,47.59359,-54.27349
2024-01-03 19:04:00+00:00,228.0,4.82,227.0,5.59,14.4,47.59359,-54.27349
2024-01-03 19:14:00+00:00,224.0,5.23,224.0,5.81,13.29,47.59359,-54.27349
2024-01-03 19:24:00+00:00,226.0,4.83,221.0,5.6,13.29,47.59359,-54.27349
2024-01-03 19:34:00+00:00,228.0,4.72,229.0,5.38,13.29,47.59359,-54.27349
2024-01-03 19:44:00+00:00,223.0,4.49,223.0,5.44,13.29,47.59359,-54.27349
2024-01-03 19:54:00+00:00,233.0,5.04,231.0,5.76,13.29,47.59359,-54.27349
2024-01-03 20:04:00+00:00,205.0,4.29,220.0,5.25,13.29,47.59359,-54.27349
2024-01-03 20:14:00+00:00,215.0,4.23,222.0,5.09,12.57,47.59359,-54.27349
2024-01-03 20:24:00+00:00,220.0,3.76,225.0,5.14,12.57,47.59359,-54.27349
2024-01-03 20:34:00+00:00,218.0,2.38,233.0,3.6,12.57,47.59359,-54.27349
2024-01-03 20:44:00+00:00,241.0,3.67,236.0,4.15,12.57,47.59359,-54.27349
2024-01-03 20:54:00+00:00,253.0,2.39,263.0,3.33,12.57,47.59359,-54.27349
2024-01-03 21:04:00+00:00,245.0,2.17,253.0,3.17,12.57,47.59359,-54.27349
2024-01-03 21:14:00+00:00,225.0,1.07,255.0,2.67,12.41,47.59359,-54.27349
2024-01-03 21:24:00+00:00,241.0,0.43,273.0,1.93,12.41,47.59359,-54.27349
2024-01-03 21:34:00+00:00,208.0,0.79,255.0,1.74,12.41,47.59359,-54.27349
2024-01-03 21:44:00+00:00,177.0,0.55,101.0,1.73,12.41,47.59359,-54.27349
2024-01-03 21:54:00+00:00,255.0,1.27,262.0,1.68,12.41,47.59359,-54.27349
2024-01-03 22:04:00+00:00,241.0,1.4,238.0,1.62,12.41,47.59359,-54.27349
2024-01-03 22:14:00+00:00,315.0,1.06,313.0,1.47,12.41,47.59359,-54.27349
2024-01-03 22:24:00+00:00,25.0,1.03,15.0,1.31,12.41,47.59359,-54.27349
2024-01-03 22:34:00+00:00,346.0,1.17,356.0,1.58,12.41,47.59359,-54.27349
2024-01-03 22:44:00+00:00,347.0,1.67,337.0,2.37,12.41,47.59359,-54.27349
2024-01-03 22:54:00+00:00,356.0,1.67,1.0,1.89,12.41,47.59359,-54.27349
2024-01-03 23:04:00+00:00,37.0,1.67,38.0,1.96,12.41,47.59359,-54.27349
2024-01-03 23:14:00+00:00,15.0,2.34,339.0,2.74,12.33,47.59359,-54.27349
2024-01-03 23:24:00+00:00,44.0,2.22,65.0,4.18,12.33,47.59359,-54.27349
2024-01-03 23:34:00+00:00,259.0,0.94,283.0,2.06,12.33,47.59359,-54.27349
2024-01-03 23:44:00+00:00,291.0,0.3,276.0,2.03,12.33,47.59359,-54.27349
2024-01-03 23:54:00+00:00,289.0,1.01,282.0,2.09,12.33,47.59359,-54.27349
